Chignik, AK

12:54 PM AKST on November 21, 2017 (GMT -0900)
Chignik

Weather History for PAJC - September, 2012

Change the Weather History Date:

Friday, September 21, 2012

  Actual Average Record
Temperature  
Mean Temperature 44 °F -  
Max Temperature 48 °F 50 °F 57 °F (2000)
Min Temperature 39 °F 43 °F 39 °F (2012)
Degree Days  
Heating Degree Days 22    
Moisture  
Dew Point 37 °F    
Average Humidity 75    
Maximum Humidity 87    
Minimum Humidity 61    
Precipitation  
Precipitation 0.00 in - - ()
Sea Level Pressure  
Sea Level Pressure 29.50 in    
Wind  
Wind Speed - (North)    
Max Wind Speed -    
Max Gust Speed -    
Visibility 10 miles    
Events      
Averages and records for this station are not official NWS values.
T = Trace of Precipitation, MM = Missing Value Source: NWS Daily Summary

Daily Weather History Graph

Daily Weather History Graph

Search for Another Location

Airport or City:

Trip Planner

Search our weather history database for the weather conditions in past years. The results will help you decide how hot, cold, wet, or windy it might be!

Date:

Astronomy

Sep. 21, 2012 Rise Set
Actual Time 8:18 AM AKDT 8:33 PM AKDT
Civil Twilight 7:40 AM AKDT 9:10 PM AKDT
Nautical Twilight 6:55 AM AKDT 9:55 PM AKDT
Astronomical Twilight 6:08 AM AKDT 10:42 PM AKDT
Moon 4:02 PM AKDT 11:34 PM AKDT
Length of Visible Light 13h 29m
Length of Day
12h 15m
Waxing Crescent, 39% of the Moon is Illuminated
Sep 21
Waxing Crescent
Sep 22
First Quarter
Sep 29
Full
Oct 7
Last Quarter
Oct 15
New

Hourly Weather History & Observations

Time (AKDT) Temp. Dew Point Humidity Pressure Visibility Wind Dir Wind Speed Gust Speed Precip Events Conditions
12:16 AM 44.6 °F 32.0 °F 61% 29.68 in 10.0 mi North - - N/A   Clear
12:36 AM 42.8 °F 32.0 °F 66% 29.69 in 10.0 mi North - - N/A   Clear
12:56 AM 42.8 °F 32.0 °F 66% 29.69 in 10.0 mi North - - N/A   Clear
1:16 AM 42.8 °F 32.0 °F 66% 29.70 in 10.0 mi North - - N/A   Clear
1:36 AM 41.0 °F 32.0 °F 70% 29.70 in 10.0 mi North - - N/A   Clear
1:56 AM 39.2 °F 32.0 °F 75% 29.70 in 10.0 mi North - - N/A   Clear
2:16 AM 39.2 °F 30.2 °F 70% 29.68 in 10.0 mi North - - N/A   Clear
2:36 AM 41.0 °F 32.0 °F 70% 29.69 in 10.0 mi North - - N/A   Clear
2:56 AM 41.0 °F 30.2 °F 65% 29.70 in 10.0 mi North - - N/A   Clear
3:16 AM 39.2 °F 30.2 °F 70% 29.69 in 10.0 mi North - - N/A   Clear
3:36 AM 41.0 °F 30.2 °F 65% 29.68 in 10.0 mi North - - N/A   Clear
3:56 AM 39.2 °F 30.2 °F 70% 29.68 in 10.0 mi North - - N/A   Clear
4:16 AM 41.0 °F 30.2 °F 65% 29.68 in 10.0 mi North - - N/A   Clear
4:36 AM 41.0 °F 30.2 °F 65% 29.68 in 10.0 mi North - - N/A   Clear
4:56 AM 41.0 °F 30.2 °F 65% 29.67 in 10.0 mi North - - N/A   Clear
5:16 AM 39.2 °F 32.0 °F 75% 29.65 in 10.0 mi North - - N/A   Clear
5:36 AM 41.0 °F 30.2 °F 65% 29.64 in 10.0 mi North - - N/A   Clear
5:56 AM 41.0 °F 30.2 °F 65% 29.65 in 10.0 mi North - - N/A   Clear
6:16 AM 41.0 °F 30.2 °F 65% 29.65 in 10.0 mi North - - N/A   Clear
6:36 AM 39.2 °F 32.0 °F 75% 29.65 in 10.0 mi North - - N/A   Clear
6:56 AM 39.2 °F 30.2 °F 70% 29.66 in 10.0 mi North - - N/A   Scattered Clouds
7:16 AM 41.0 °F 32.0 °F 70% 29.65 in 10.0 mi North - - N/A   Scattered Clouds
7:36 AM 41.0 °F 32.0 °F 70% 29.65 in 10.0 mi North - - N/A   Mostly Cloudy
7:56 AM 41.0 °F 32.0 °F 70% 29.64 in 10.0 mi North - - N/A   Overcast
8:16 AM 41.0 °F 33.8 °F 76% 29.64 in 10.0 mi North - - N/A   Overcast
8:36 AM 42.8 °F 33.8 °F 70% 29.63 in 10.0 mi North - - N/A   Overcast
8:56 AM 42.8 °F 33.8 °F 70% 29.66 in 10.0 mi North - - N/A   Overcast
9:16 AM 42.8 °F 33.8 °F 70% 29.65 in 10.0 mi North - - N/A   Overcast
9:36 AM 42.8 °F 33.8 °F 70% 29.63 in 10.0 mi North - - N/A   Overcast
9:56 AM 42.8 °F 35.6 °F 76% 29.63 in 10.0 mi North - - N/A   Overcast
10:16 AM 42.8 °F 35.6 °F 76% 29.64 in 10.0 mi North - - N/A   Overcast
10:36 AM 42.8 °F 35.6 °F 76% 29.64 in 10.0 mi North - - N/A   Overcast
10:56 AM 44.6 °F 37.4 °F 76% 29.64 in 10.0 mi North - - N/A   Overcast
11:16 AM 44.6 °F 37.4 °F 76% 29.63 in 5.0 mi North - - N/A   Overcast
11:36 AM 42.8 °F 37.4 °F 81% 29.62 in 8.0 mi North - - N/A   Overcast
11:56 AM 42.8 °F 37.4 °F 81% 29.62 in 5.0 mi North - - N/A   Overcast
12:16 PM 42.8 °F 37.4 °F 81% 29.60 in 10.0 mi North - - N/A   Overcast
12:36 PM 44.6 °F 37.4 °F 76% 29.59 in 10.0 mi North - - N/A   Overcast
12:56 PM 44.6 °F 39.2 °F 81% 29.56 in 10.0 mi North - - N/A   Overcast
1:16 PM 44.6 °F 39.2 °F 81% 29.53 in 10.0 mi North - - N/A   Overcast
1:36 PM 44.6 °F 39.2 °F 81% 29.53 in 10.0 mi North - - N/A   Overcast
1:56 PM 46.4 °F 39.2 °F 76% 29.53 in 10.0 mi North - - N/A   Overcast
2:16 PM 46.4 °F 39.2 °F 76% 29.53 in 10.0 mi North - - N/A   Overcast
2:36 PM 46.4 °F 39.2 °F 76% 29.51 in 10.0 mi North - - N/A   Overcast
2:56 PM 46.4 °F 41.0 °F 81% 29.47 in 10.0 mi North - - N/A   Overcast
3:16 PM 46.4 °F 39.2 °F 76% 29.45 in 10.0 mi North - - N/A   Overcast
3:36 PM 48.2 °F 39.2 °F 71% 29.42 in 10.0 mi North - - N/A   Overcast
3:56 PM 48.2 °F 39.2 °F 71% 29.40 in 10.0 mi North - - N/A   Overcast
4:16 PM 48.2 °F 41.0 °F 76% 29.38 in 10.0 mi North - - N/A   Overcast
4:36 PM 48.2 °F 42.8 °F 82% 29.38 in 10.0 mi North - - N/A   Overcast
4:56 PM 48.2 °F 41.0 °F 76% 29.36 in 10.0 mi North - - N/A   Overcast
5:16 PM 48.2 °F 41.0 °F 76% 29.35 in 10.0 mi North - - N/A   Overcast
5:36 PM 48.2 °F 39.2 °F 71% 29.34 in 10.0 mi North - - N/A   Overcast
5:56 PM 48.2 °F 41.0 °F 76% 29.34 in 10.0 mi North - - N/A   Overcast
6:16 PM 48.2 °F 42.8 °F 82% 29.32 in 9.0 mi North - - N/A   Overcast
6:36 PM 48.2 °F 41.0 °F 76% 29.30 in 10.0 mi North - - N/A   Overcast
6:56 PM 48.2 °F 42.8 °F 82% 29.28 in 9.0 mi North - - N/A   Overcast
7:16 PM 48.2 °F 41.0 °F 76% 29.27 in 10.0 mi North - - N/A   Overcast
7:36 PM 48.2 °F 41.0 °F 76% 29.26 in 10.0 mi North - - N/A   Overcast
7:56 PM 48.2 °F 41.0 °F 76% 29.25 in 8.0 mi North - - N/A   Overcast
8:16 PM 48.2 °F 41.0 °F 76% 29.24 in 10.0 mi North - - N/A   Overcast
8:36 PM 48.2 °F 41.0 °F 76% 29.23 in 10.0 mi North - - N/A   Overcast
8:56 PM 48.2 °F 41.0 °F 76% 29.22 in 10.0 mi North - - N/A   Overcast
9:16 PM 46.4 °F 42.8 °F 87% 29.22 in 10.0 mi North - - N/A   Overcast
9:36 PM 48.2 °F 42.8 °F 82% 29.20 in 10.0 mi North - - N/A   Overcast
9:56 PM 46.4 °F 42.8 °F 87% 29.19 in 10.0 mi North - - N/A   Overcast
10:16 PM 46.4 °F 42.8 °F 87% 29.19 in 8.0 mi North - - N/A   Overcast
10:36 PM 46.4 °F 42.8 °F 87% 29.18 in 10.0 mi North - - N/A   Overcast
10:56 PM 48.2 °F 42.8 °F 82% 29.17 in 8.0 mi North - - N/A   Overcast
11:16 PM 46.4 °F 42.8 °F 87% 29.17 in 9.0 mi North - - N/A   Overcast
11:36 PM 46.4 °F 42.8 °F 87% 29.16 in 9.0 mi North - - N/A   Overcast
11:56 PM 46.4 °F 42.8 °F 87% 29.15 in 5.0 mi North - - N/A   Overcast